Hauptseite
METAR-TAF:

METAR-TAF

Flughäfen :

Bohrplattform

K13-a, Niederlande

Breite: 53-13-04N, Länge: 3-13-13E, Höhe: 31 m

Beobachtung

Neuester Wetterbericht von vor 10 Minuten, um 17:25 UTC
Wind 14 kt aus Nord/Nordwest
Temperatur 13°C
Luftfeuchtigkeit 88%
Luftdruck 1025 hPa

METAR: EHJR 231725Z AUTO 33014KT //// // ///////// 13/11 Q1025 RE// W14/H15

Zeit: 19:35 (17:35 UTC)


TAF: fehlend

Wetterbeobachtungen und Prognosen von mehr als 4000 Flughäfen (METAR und TAF Bericht).

Die verfügbaren Stationen werden durch gelbe und rote Markierungen auf der Karte dargestellt.

Führen Sie die Maus auf sie, um den Namen der Station zu sehen.

Darauf klicken, um die Beobachtung von Wetterbeobachtungen und Prognosen zu sehen.

Um die Karte zu ändern : klicken Sie auf den grünen Tasten mit einem schwarzen Kreuz Zum Vergrößern, auf den grünen Button mit einem Gedankenstrich zu verkleinern, oder auf die grünen Pfeile für benachbarte Karten.


METAR-TAF: